Other Public Products
Issued by NWS Charleston, SC

Current Version | Previous Version | Text Only | Print | Product List | Glossary Off
Versions: 1 2 3 4 5 6 7 8 9 10 11 12 13 14 15 16 17 18 19 20 21 22 23 24 25 26 27 28 29 30 31 32 33 34 35 36 37 38 39 40 41 42 43 44 45 46 47 48 49 50
681 FPUS82 KCHS 301012 OPUCHS TEST...KCHS/KSAV Gateway Observations...TEST National Weather Service Charleston SC 600 AM EDT SUN APR 30 2017 NOTE: "fair" indicates few or no clouds below 12,000 feet with no significant weather and/or obstructions to visibility. SCZ050-WAZ558-NCZ071-TXZ119-213-PAZ071-DCZ001-FLZ074-172-MI076- NYZ176-178-MAZ016-IL014-TNZ027-NJZ106-GAZ044-MD014-301100- ...Gateway Observations for Charleston International... CITY SKY/WX TMP DP RH WIND PRES REMARKS Chas Airport CLOUDY 73 69 87 S8 30.15F Seattle CLOUDY 49 48 97 S13 30.12R Charlotte MOCLDY 70 65 84 S9 30.16R Dallas DFW CLOUDY 53 45 74 W20G28 29.74F Dallas Love CLOUDY 53 45 74 W13G25 29.75F Philladelphia MOCLDY 65 54 67 E8 30.14S Wash National PTCLDY 73 71 93 E5 30.07R Baltimore CLOUDY 70 62 76 E13 30.09R Miami MOCLDY 79 68 69 SE16 30.08R Detroit CLOUDY 46 43 89 E9 30.06S Newark MOCLDY 61 45 55 N13 30.17R Laguardia PTCLDY 61 42 49 NE10 30.18R J F K MOCLDY 61 43 51 NE16 30.18R Boston Logan PTCLDY 51 29 42 N12 30.22R Ft. Lauderdale LGT RAIN 77 71 82 SE15 30.07R Chicago O`Hare DRIZZLE 42 40 92 NE13 29.93R Chicago Midway CLOUDY 44 43 96 NE15G23 29.91F Houston Bush CLOUDY 63 50 62 NW10 29.79F Houston Hobby CLOUDY 66 46 48 NW17G24 29.77F Nashville CLOUDY 73 65 75 S9 29.88F Atlanta PTCLDY 70 67 90 SE10 30.06S $$ GAZ044-118-TXZ119-213-NCZ071-DCZ001-MDZ014-506-PAZ021-071-NJZ106- NYZ176-178-MAZ106-OHZ011-021-055-MIZ076-KYZ091-ILZ014-INZ047- MNZ060-ONZ431-301100- ...Gateway Observations for Savannah International... CITY SKY/WX TMP DP RH WIND PRES REMARKS Savannah Arpt CLOUDY 74 69 85 SE9 30.13F Atlanta PTCLDY 70 67 90 SE10 30.06S Charlotte MOCLDY 70 65 84 S9 30.16R Dallas DFW CLOUDY 53 45 74 W20G28 29.74F Houston Bush CLOUDY 63 50 62 NW10 29.79F Wash National PTCLDY 73 71 93 E5 30.07R Wash Dulles PTCLDY 68 64 87 N3 30.07S Baltimore CLOUDY 70 62 76 E13 30.09R Philadelphia MOCLDY 65 54 67 E8 30.14S Newark MOCLDY 61 45 55 N13 30.17R Laguardia PTCLDY 61 42 49 NE10 30.18R J F K MOCLDY 61 43 51 NE16 30.18R Boston PTCLDY 51 29 42 N12 30.22R Pittsburg LGT RAIN 59 58 96 SE7 30.02F Akron CLOUDY 57 53 86 SE5 30.01F Cleveland PTCLDY 51 45 79 NE12 30.04F Cincinnati PTCLDY 68 64 87 S5 29.92F Columbus FOG 59 59 100 NE7 29.97R VSB 3/4 Detroit CLOUDY 46 43 89 E9 30.06S Chicago O`Hare DRIZZLE 42 40 92 NE13 29.93R Minneapolis CLOUDY 45 24 43 E12 30.10F Indianapolis CLOUDY 58 56 93 E6 29.86F Toronto Canada TSTM 41 28 60 SE12G23 30.32 $$

USA.gov is the U.S. government's official web portal to all federal, state and local government web resources and services.